"TOA5","AWS1","CR1000","7964","CR1000.Std.14","CPU:AWS1_114.CR1","64363","TBL110"
"TIMESTAMP","RECORD","Wind_spd_WVc(1)","Wind_spd_WVc(2)","Air_Temp_Avg","Humidity_Avg","SW_upper_Wm2_Avg","Rain_Tot","Press_Avg","Issui_Tot","Depth_cm","SR50A_Raw","Quality","Ground_Temp_Avg(1)","Ground_Temp_Avg(2)","SW_lower_Wm2_Avg","Albedo_Avg","SWC_per(1)","SWC_per(2)","Period(1)","Period(2)"
"TS","RN","","","","","","","","","","","","","","","","","","",""
"","","WVc","WVc","Avg","Avg","Avg","Tot","Avg","Tot","Smp","Smp","Smp","Avg","Avg","Avg","Avg","Smp","Smp","Smp","Smp"
"2018-03-18 00:00:00",332269,0.089,307.2,-1.472,69.56,0,0,872.4893,0,49.97,2.687,197,0.557,0.941,0.007586854,0,53.9,62.12,34.25,36.16
"2018-03-18 00:10:00",332270,0.091,297.4,-1.465,70.03,0,0,872.7044,0,50.11,2.686,200,0.56,0.942,0,0,53.9,62.12,34.25,36.16
"2018-03-18 00:20:00",332271,0.266,152,-1.821,72.34,0,0,872.7424,0,49.93,2.693,200,0.557,0.942,0.007586854,0,53.95,62.12,34.26,36.16
"2018-03-18 00:30:00",332272,0.313,143.6,-2.356,75.7,0,0,872.7403,0,49.96,2.691,200,0.569,0.943,0,0,53.9,62.12,34.25,36.16
"2018-03-18 00:40:00",332273,0.179,129.2,-2.091,74.74,0,0,872.6138,0,50.23,2.688,193,0.569,0.926,0.01896713,0,53.9,62.12,34.25,36.16
"2018-03-18 00:50:00",332274,0.8,131.9,-1.858,74.73,0,0,872.4283,0,50.02,2.688,192,0.566,0.932,0.2238122,0,53.9,62.12,34.25,36.16
"2018-03-18 01:00:00",332275,0.555,128,-1.723,73.97,0,0,872.3608,0,49.98,2.689,196,0.56,0.939,0.0417277,0,53.9,62.12,34.25,36.16
"2018-03-18 01:10:00",332276,0.605,125.5,-1.79,74.92,0,0,872.2406,0,49.94,2.689,201,0.564,0.938,0.02276056,0,53.9,62.12,34.25,36.16
"2018-03-18 01:20:00",332277,0.183,155,-1.782,75.45,0,0,872.2364,0,49.93,2.69,200,0.561,0.946,0,0,53.9,62.12,34.25,36.16
"2018-03-18 01:30:00",332278,0.349,303,-1.792,75.54,0,0,872.2175,0,50,2.688,185,0.561,0.937,0,0,53.9,62.12,34.25,36.16
"2018-03-18 01:40:00",332279,0.136,303.7,-1.76,75.49,0,0,872.2364,0,50.11,2.688,204,0.564,0.924,0,0,53.9,62.12,34.25,36.16
"2018-03-18 01:50:00",332280,0.124,349.5,-1.824,78.02,0,0,872.2175,0,49.87,2.691,204,0.559,0.921,0,0,53.9,62.12,34.25,36.16
"2018-03-18 02:00:00",332281,0,0,-2.131,80.1,0,0,872.1901,0,49.83,2.694,202,0.583,0.92,0,0,53.9,62.18,34.25,36.17
"2018-03-18 02:10:00",332282,0.219,203.6,-2.963,81.7,0,0,872.131,0,49.92,2.697,202,0.588,0.905,0,0,53.95,62.12,34.26,36.16
"2018-03-18 02:20:00",332283,0.153,193.1,-3.224,84.3,0,0,871.9729,0,50.04,2.694,206,0.578,0.903,0,0,53.95,62.12,34.26,36.16
"2018-03-18 02:30:00",332284,0.068,186.3,-3.067,83.6,0,0,871.7663,0,49.96,2.697,204,0.565,0.905,0,0,53.9,62.12,34.25,36.16
"2018-03-18 02:40:00",332285,0.144,191.4,-3.22,85.5,0,0,871.8063,0,50.04,2.694,205,0.567,0.904,0.01138028,0,53.9,62.12,34.25,36.16
"2018-03-18 02:50:00",332286,0.042,196.6,-3.008,85.1,0,0,871.9666,0,50.07,2.697,208,0.527,0.924,0.1593239,0,53.95,62.12,34.26,36.16
"2018-03-18 03:00:00",332287,0.151,193.5,-3.52,86.4,0,0,871.8548,0,50.19,2.694,208,0.518,0.937,0.04552113,0,53.9,62.12,34.25,36.16
"2018-03-18 03:10:00",332288,0.094,192.8,-3.145,86.8,0,0,871.7305,0,50.05,2.695,206,0.511,0.94,0.2162259,0,53.9,62.12,34.25,36.16
"2018-03-18 03:20:00",332289,0.202,110.2,-2.729,85,0,0,871.7136,0,49.66,2.697,205,0.512,0.943,0.5197061,0,53.9,62.12,34.25,36.16
"2018-03-18 03:30:00",332290,0.187,209.9,-3.011,84.6,0,0,871.5428,0,50.01,2.694,211,0.52,0.949,0.1138083,0,53.9,62.12,34.25,36.16
"2018-03-18 03:40:00",332291,0.072,198.9,-2.869,82.8,0,0,871.606,0,50.47,2.689,182,0.527,0.957,0.0720804,0,53.9,62.12,34.25,36.16
"2018-03-18 03:50:00",332292,0.068,297.9,-2.578,79.58,0,0,871.7136,0,49.88,2.696,208,0.535,0.964,0.311091,0,53.9,62.12,34.25,36.16
"2018-03-18 04:00:00",332293,0.053,196.8,-3.081,82.4,0,0,871.7305,0,50.01,2.695,201,0.536,0.966,0.01517569,0,53.9,62.12,34.25,36.16
"2018-03-18 04:10:00",332294,0.146,197.3,-2.933,79.97,0,0,871.7305,0,50.02,2.695,211,0.56,0.985,0.1669377,0,53.9,62.12,34.25,36.16
"2018-03-18 04:20:00",332295,0.387,199.4,-3.195,80.3,0,0,871.7136,0,50.23,2.691,208,0.583,0.994,0.06829654,0,53.95,62.12,34.26,36.16
"2018-03-18 04:30:00",332296,0.061,275.3,-2.469,69.94,0,0,871.7331,0,49.91,2.695,213,0.601,1.002,0.413578,0,53.9,62.12,34.25,36.16
"2018-03-18 04:40:00",332297,0.002,221.5,-2.805,72.43,0,0,871.7551,0,50.45,2.687,227,0.614,1.01,0.2162819,0,53.9,62.12,34.25,36.16
"2018-03-18 04:50:00",332298,0.248,180.6,-2.568,65.48,0,0,871.7376,0,50.15,2.693,213,0.62,1.01,0.4591241,0,53.9,62.12,34.25,36.16
"2018-03-18 05:00:00",332299,0.189,181.3,-2.383,56.1,0,0,871.774,0,50.07,2.692,218,0.63,1.019,0.3680748,0,53.9,62.12,34.25,36.16
"2018-03-18 05:10:00",332300,0.537,193.6,-2.711,55.99,0,0,871.8795,0,50.23,2.69,220,0.633,1.024,0.1290176,0,53.9,62.12,34.25,36.16
"2018-03-18 05:20:00",332301,0.36,192.5,-2.474,50.46,0,0,871.9908,0,49.99,2.693,217,0.637,1.027,0.1100456,0,53.9,62.12,34.25,36.16
"2018-03-18 05:30:00",332302,0.381,189.5,-2.568,49.79,0,0,871.9924,0,50.03,2.693,212,0.638,1.028,0.003794709,0,53.9,62.12,34.25,36.16
"2018-03-18 05:40:00",332303,0.312,184.5,-2.896,53.2,0,0,871.7901,0,50.12,2.693,221,0.639,1.029,0,0,53.9,62.12,34.25,36.16
"2018-03-18 05:50:00",332304,0.144,163.2,-2.514,50.25,0,0,871.7581,0,50.13,2.691,213,0.639,1.03,0.2542464,0,53.9,62.12,34.25,36.16
"2018-03-18 06:00:00",332305,0.363,145.2,-2.21,52.48,0.1416837,0,871.7701,0,49.39,2.696,210,0.639,1.03,1.248464,1.018,53.9,62.12,34.25,36.16
"2018-03-18 06:10:00",332306,0.392,157.2,-2.499,56.32,3.211497,0,871.6861,0,49.93,2.696,215,0.639,1.029,2.569028,0.929,53.9,62.12,34.25,36.16
"2018-03-18 06:20:00",332307,0.342,153.8,-1.746,37.8,11.09856,0,871.5414,0,50.1,2.681,199,0.636,1.029,6.564871,0.6,53.9,62.12,34.25,36.16
"2018-03-18 06:30:00",332308,0.256,138.6,-0.335,29.3,22.06724,0,871.7294,0,49.89,2.687,208,0.61,1.026,11.23238,0.514,53.9,62.12,34.25,36.16
"2018-03-18 06:40:00",332309,0.261,254.1,-1.123,37.05,47.17674,0,871.7725,0,50.21,2.681,210,0.616,1.004,26.16462,0.547,53.9,62.12,34.25,36.16
"2018-03-18 06:50:00",332310,0.478,308.3,-0.192,32.77,55.51244,0,871.7922,0,49.85,2.682,187,0.645,0.983,29.14346,0.528,53.84,62.12,34.23,36.16
"2018-03-18 07:00:00",332311,0.117,161.3,-0.594,42.71,56.1487,0,871.8181,0,49.59,2.69,200,0.634,0.978,28.41799,0.507,53.84,62.12,34.23,36.16
"2018-03-18 07:10:00",332312,0.162,350.1,-0.426,30.75,43.96523,0,871.9515,0,50.19,2.676,204,0.617,1.003,29.19013,0.666,53.9,62.12,34.25,36.16
"2018-03-18 07:20:00",332313,0.459,130.7,-0.121,39.06,61.48185,0,872.0135,0,50.25,2.68,194,0.56,0.981,35.2801,0.625,53.9,62.12,34.25,36.16
"2018-03-18 07:30:00",332314,0.216,116.8,-0.136,42.58,86.44925,0,872.1332,0,49.92,2.68,200,0.524,1.014,40.46675,0.531,53.9,62.12,34.25,36.16
"2018-03-18 07:40:00",332315,0.046,281.8,0.38,42.2,121.2378,0,872.1902,0,49.79,2.679,194,0.573,1,51.6447,0.608,53.9,62.12,34.25,36.16
"2018-03-18 07:50:00",332316,0.056,136,0.806,43.05,254.1072,0,872.1628,0,49.87,2.677,205,0.561,0.95,67.57273,0.294,53.9,62.12,34.25,36.16
"2018-03-18 08:00:00",332317,0.281,51.73,1.164,39.21,297.9022,0,872.2566,0,49.83,2.677,200,0.557,0.992,88.3148,0.34,53.9,62.06,34.25,36.15
"2018-03-18 08:10:00",332318,0.549,313.4,0.861,38.18,263.5897,0,872.4311,0,49.88,2.677,195,0.657,0.953,95.32673,0.419,53.9,62.06,34.25,36.15
"2018-03-18 08:20:00",332319,0.217,7.509,1.098,39.99,179.642,0,872.5358,0,49.87,2.675,204,0.555,0.961,94.57461,0.547,53.9,62.06,34.25,36.15
"2018-03-18 08:30:00",332320,0.187,150.9,1.557,42.7,107.7332,0,872.6186,0,49.78,2.672,187,0.568,1.009,85.93754,0.8,53.84,62.06,34.23,36.15
"2018-03-18 08:40:00",332321,0.876,135.7,2.374,34.55,90.64841,0,872.5752,0,50.23,2.665,198,0.608,0.919,89.16955,0.999,53.84,62.06,34.23,36.15
"2018-03-18 08:50:00",332322,0.926,137.8,2.839,29.61,178.7821,0,872.5495,0,50.02,2.666,192,0.572,0.881,89.73741,0.604,53.84,62.06,34.23,36.15
"2018-03-18 09:00:00",332323,0.962,143.1,3.306,27.24,235.0092,0,872.516,0,49.85,2.665,180,0.557,0.863,87.47633,0.497,53.84,62.06,34.23,36.15
"2018-03-18 09:10:00",332324,1.131,140.4,3.392,29.44,88.95788,0,872.5154,0,49.99,2.663,194,0.529,0.856,82.59938,0.939,53.84,62.06,34.23,36.15
"2018-03-18 09:20:00",332325,0.745,140.5,3.849,30.29,107.5461,0,872.5291,0,49.92,2.66,182,0.507,0.86,79.38416,0.742,53.9,62.06,34.25,36.15
"2018-03-18 09:30:00",332326,0.824,157.1,4.172,33.16,136.7185,0,872.7277,0,50.22,2.657,176,0.504,0.895,81.23013,0.607,53.84,62.06,34.23,36.15
"2018-03-18 09:40:00",332327,1.053,135.9,3.968,39.99,242.9983,0,872.7269,0,50.12,2.66,173,0.474,0.928,88.38341,0.386,53.84,62.06,34.23,36.15
"2018-03-18 09:50:00",332328,1.033,125.2,4.291,39.98,195.6261,0,872.7352,0,49.83,2.66,174,0.475,0.932,89.3766,0.508,53.84,62.06,34.23,36.15
"2018-03-18 10:00:00",332329,1.086,144.5,4.497,39.09,239.8019,0,872.684,0,50.06,2.658,176,0.481,0.939,96.53371,0.491,53.84,62.06,34.23,36.15
"2018-03-18 10:10:00",332330,1.092,141.4,4.862,38.93,510.2311,0,872.5587,0,50.07,2.656,182,0.469,0.935,102.3754,0.208,53.84,62.06,34.23,36.15
"2018-03-18 10:20:00",332331,1.145,138.7,5.06,39.72,327.9608,0,872.593,0,50.21,2.653,186,0.479,0.925,114.7259,0.41,53.84,62.06,34.23,36.15
"2018-03-18 10:30:00",332332,1.251,138.7,5.173,40.54,304.4732,0,872.4533,0,50.09,2.655,192,0.477,0.935,135.2533,0.452,53.84,62.06,34.23,36.15
"2018-03-18 10:40:00",332333,1.064,128.4,5.089,42.2,344.208,0,872.3041,0,49.8,2.657,182,0.492,0.937,166.36,0.486,53.84,62.06,34.23,36.15
"2018-03-18 10:50:00",332334,0.727,120.7,5.311,43.48,438.5649,0,872.3038,0,49.63,2.658,169,0.481,0.922,162.4386,0.375,53.84,62,34.23,36.13
"2018-03-18 11:00:00",332335,0.772,135.1,5.345,43.53,403.8739,0,872.2109,0,49.46,2.659,173,0.459,0.886,147.8636,0.366,53.84,62.06,34.23,36.15
"2018-03-18 11:10:00",332336,0.924,133.8,5.202,43.53,446.6789,0,872.2089,0,49.65,2.657,178,0.438,0.848,154.6336,0.348,53.84,62.06,34.23,36.15
"2018-03-18 11:20:00",332337,1.079,143.2,5.325,42.78,480.121,0,872.1478,0,50.02,2.654,189,0.426,0.819,162.4419,0.34,53.78,62,34.22,36.13
"2018-03-18 11:30:00",332338,0.683,127.6,5.209,44.07,343.4147,0,872.0972,0,49.5,2.659,176,0.423,0.817,129.9745,0.379,53.84,62,34.23,36.13
"2018-03-18 11:40:00",332339,0.365,155.2,5.537,45.94,368.9405,0,871.9603,0,49.01,2.662,168,0.435,0.816,142.237,0.386,53.84,62,34.23,36.13
"2018-03-18 11:50:00",332340,0.255,131.3,5.718,45.1,403.1139,0,871.954,0,49.17,2.66,172,0.43,0.807,155.8905,0.387,53.84,62,34.23,36.13
"2018-03-18 12:00:00",332341,0.627,109.1,5.945,45.62,523.8365,0,871.7645,0,49.18,2.659,173,0.462,0.807,201.0846,0.384,53.84,62,34.23,36.13
"2018-03-18 12:10:00",332342,0.535,155.8,6.437,44.43,540.3948,0,871.598,0,48.93,2.658,183,0.462,0.822,208.5197,0.385,53.84,62,34.23,36.13
"2018-03-18 12:20:00",332343,0.294,88.8,6.807,43.13,492.7021,0,871.4369,0,49,2.658,193,0.457,0.842,186.121,0.377,53.78,62,34.22,36.13
"2018-03-18 12:30:00",332344,0.516,117.3,6.512,42.71,335.0001,0,871.4118,0,49.21,2.657,189,0.424,0.831,124.0626,0.37,53.84,62,34.23,36.13
"2018-03-18 12:40:00",332345,0.555,90.1,6.549,43.49,448.7643,0,871.2263,0,49.36,2.654,189,0.417,0.795,170.8346,0.38,53.84,62,34.23,36.13
"2018-03-18 12:50:00",332346,0.481,21.19,6.773,40.28,524.6516,0,871.0396,0,49.37,2.653,189,0.4,0.75,199.1692,0.379,53.84,62,34.23,36.13
"2018-03-18 13:00:00",332347,0.456,87.8,7.269,38.6,531.1698,0,870.8566,0,49,2.655,181,0.362,0.745,199.7482,0.375,53.78,62,34.22,36.13
"2018-03-18 13:10:00",332348,0.545,67.77,7.322,40.11,467.5592,0,870.6784,0,48.63,2.66,185,0.33,0.766,174.9175,0.374,53.84,62,34.23,36.13
"2018-03-18 13:20:00",332349,0.332,357.9,7.165,40.26,584.5906,0,870.507,0,48.68,2.658,184,0.326,0.757,218.1816,0.372,53.78,62,34.22,36.13
"2018-03-18 13:30:00",332350,0.49,319.3,6.935,42.42,498.8706,0,870.3447,0,48.79,2.658,201,0.31,0.749,181.5257,0.364,53.78,62,34.22,36.13
"2018-03-18 13:40:00",332351,0.452,313.1,6.836,45.02,532.8399,0,870.3467,0,48.41,2.664,176,0.277,0.749,187.2041,0.35,53.78,61.94,34.22,36.12
"2018-03-18 13:50:00",332352,0.611,300.9,6.192,48.98,452.8229,0,870.2394,0,48.94,2.662,178,0.261,0.701,146.844,0.324,53.78,61.94,34.22,36.12
"2018-03-18 14:00:00",332353,0.427,320,6.411,49.78,580.3918,0,870.0941,0,48.61,2.661,178,0.258,0.688,167.1831,0.289,53.73,62,34.21,36.13
"2018-03-18 14:10:00",332354,0.452,309.5,6.15,52.42,464.5743,0,869.8815,0,48.68,2.664,180,0.262,0.715,141.3586,0.305,53.73,61.94,34.21,36.12
"2018-03-18 14:20:00",332355,0.445,357.3,6.427,49.99,338.0741,0,869.8309,0,48.1,2.664,187,0.256,0.701,116.5153,0.346,53.78,61.94,34.22,36.12
"2018-03-18 14:30:00",332356,0.632,62.01,7.06,45.02,262.3004,0,869.6625,0,47.88,2.667,188,0.25,0.692,95.42986,0.363,53.78,61.94,34.22,36.12
"2018-03-18 14:40:00",332357,0.327,29.65,6.725,41.91,235.8193,0,869.7594,0,48.13,2.667,195,0.278,0.7,84.39089,0.358,53.78,61.94,34.22,36.12
"2018-03-18 14:50:00",332358,0.503,46.35,6.468,41.01,236.0354,0,869.833,0,47.68,2.671,193,0.288,0.717,85.52357,0.362,53.73,61.94,34.21,36.12
"2018-03-18 15:00:00",332359,0.302,57.67,6.375,40.97,224.2375,0,869.8393,0,48.15,2.668,187,0.289,0.714,81.33781,0.363,53.78,61.94,34.22,36.12
"2018-03-18 15:10:00",332360,0.245,14.5,6.505,44.03,239.9624,0,869.8415,0,47.71,2.671,184,0.299,0.705,86.2317,0.359,53.73,61.94,34.21,36.12
"2018-03-18 15:20:00",332361,0.337,24.79,6.675,45.57,220.711,0,869.8436,0,46.96,2.679,193,0.314,0.712,79.01568,0.358,53.78,61.94,34.22,36.12
"2018-03-18 15:30:00",332362,0.549,13.76,6.111,43.66,177.6828,0,869.862,0,47.87,2.671,183,0.336,0.732,62.51072,0.352,53.78,61.94,34.22,36.12
"2018-03-18 15:40:00",332363,0.336,205.2,6.298,41.41,163.1279,0,869.8787,0,47.39,2.677,184,0.392,0.716,57.5336,0.353,53.73,61.88,34.21,36.11
"2018-03-18 15:50:00",332364,0.168,9.44,5.924,43.82,155.7568,0,869.8895,0,47.96,2.67,173,0.417,0.741,55.37565,0.356,53.78,61.88,34.22,36.11
"2018-03-18 16:00:00",332365,0.103,127.7,6.125,44.67,155.6182,0,869.8975,0,47.73,2.673,178,0.437,0.761,55.37188,0.356,53.73,61.88,34.21,36.11
"2018-03-18 16:10:00",332366,0.228,18.83,6.041,45.66,141.4816,0,870.1298,0,48.04,2.672,186,0.448,0.771,49.93691,0.353,53.73,61.88,34.21,36.11
"2018-03-18 16:20:00",332367,0.079,348.1,5.782,47,124.3253,0,870.1837,0,47.61,2.675,195,0.446,0.804,43.43903,0.349,53.73,61.88,34.21,36.11
"2018-03-18 16:30:00",332368,0.002,252.9,5.885,48.5,110.5742,0,870.1683,0,47.78,2.675,192,0.416,0.803,38.39172,0.347,53.73,61.94,34.21,36.12
"2018-03-18 16:40:00",332369,0.226,58.97,5.576,49.95,92.77428,0,870.0142,0,47.72,2.676,194,0.392,0.811,31.97992,0.345,53.73,61.88,34.21,36.11
"2018-03-18 16:50:00",332370,0.278,75.13,5.407,51.2,84.6583,0,869.9462,0,47.68,2.677,192,0.385,0.809,29.41821,0.347,53.73,61.94,34.21,36.12
"2018-03-18 17:00:00",332371,0.293,68.99,5.372,51.61,77.47375,0,869.9424,0,47.8,2.676,190,0.382,0.806,27.15206,0.35,53.67,61.88,34.19,36.11
"2018-03-18 17:10:00",332372,0.127,64.15,5.286,53.05,62.39325,0,869.9383,0,47.68,2.678,192,0.389,0.807,21.55491,0.345,53.73,61.88,34.21,36.11
"2018-03-18 17:20:00",332373,0.218,136.5,4.96,55.49,44.89956,0,869.934,0,47.95,2.677,193,0.393,0.795,15.40827,0.343,53.73,61.82,34.21,36.09
"2018-03-18 17:30:00",332374,0.198,109.6,4.62,57.28,32.45628,0,870.0267,0,47.98,2.679,189,0.413,0.779,11.19809,0.344,53.73,61.82,34.21,36.09
"2018-03-18 17:40:00",332375,0.161,93.6,4.351,58.33,16.05128,0,870.1131,0,47.84,2.681,189,0.427,0.764,5.809366,0.364,53.78,61.88,34.22,36.11
"2018-03-18 17:50:00",332376,0.295,55.69,4.16,59.18,7.168837,0,870.2753,0,47.64,2.683,187,0.455,0.767,3.031633,0.434,53.73,61.88,34.21,36.11
"2018-03-18 18:00:00",332377,0.369,98.2,3.899,60.78,0.6956602,0,870.2184,0,47.75,2.684,193,0.46,0.767,0.5570625,0.395,53.78,61.88,34.22,36.11
"2018-03-18 18:10:00",332378,0.365,124.1,3.452,63.89,0,0,870.2205,0,47.72,2.687,189,0.456,0.798,0,0,53.78,61.94,34.22,36.12
"2018-03-18 18:20:00",332379,0.512,156.5,2.813,67.83,0,0,870.2332,0,47.58,2.692,181,0.449,0.852,0,0,53.78,61.88,34.22,36.11
"2018-03-18 18:30:00",332380,0.504,153.6,2.543,69.22,0,0,870.1868,0,47.93,2.687,196,0.444,0.9,0,0,53.78,61.94,34.22,36.12
"2018-03-18 18:40:00",332381,0.547,150.5,3.038,66.51,0,0,870.0836,0,48.09,2.683,188,0.433,0.921,0.1175106,0,53.78,61.88,34.22,36.11
"2018-03-18 18:50:00",332382,0.857,151.5,3.457,64.51,0,0,869.9353,0,47.74,2.686,196,0.422,0.931,0.1592114,0,53.84,61.94,34.23,36.12
"2018-03-18 19:00:00",332383,0.758,157.6,3.695,64.96,0,0,870.0043,0,47.33,2.688,197,0.419,0.935,0.0606531,0,53.78,61.94,34.22,36.12
"2018-03-18 19:10:00",332384,0.92,162.6,3.394,66.68,0,0,869.9789,0,47.62,2.688,173,0.419,0.936,0,0,53.84,61.88,34.23,36.11
"2018-03-18 19:20:00",332385,0.892,151.3,3.439,67.58,0,0,869.9764,0,47.65,2.685,181,0.42,0.936,0,0,53.84,61.88,34.23,36.11
"2018-03-18 19:30:00",332386,0.732,150.5,3.685,67.1,0,0,870.0252,0,47.77,2.684,182,0.42,0.936,0,0,53.9,61.94,34.25,36.12
"2018-03-18 19:40:00",332387,0.76,148.4,3.515,68.63,0,0,869.9885,0,47.72,2.687,196,0.42,0.936,0,0,53.9,61.94,34.25,36.12
"2018-03-18 19:50:00",332388,0.822,155.6,3.207,71.42,0,0,869.955,0,48.14,2.682,195,0.42,0.936,0,0,53.9,61.94,34.25,36.12
"2018-03-18 20:00:00",332389,0.653,130.1,3.292,72.43,0,0,869.974,0,47.93,2.685,179,0.42,0.935,0,0,53.9,61.94,34.25,36.12
"2018-03-18 20:10:00",332390,0.637,145.8,3.484,73.15,0,0,870.0267,0,47.73,2.684,182,0.42,0.933,0.1440518,0,53.9,61.94,34.25,36.12
"2018-03-18 20:20:00",332391,0.671,142.5,3.798,72.18,0,0,870.0267,0,47.51,2.687,178,0.42,0.935,0.09098008,0,53.9,62,34.25,36.13
"2018-03-18 20:30:00",332392,0.75,130.9,3.632,73.48,0,0,870.0478,0,48.13,2.68,192,0.42,0.925,0.003790837,0,53.9,62,34.25,36.13
"2018-03-18 20:40:00",332393,0.793,146.3,3.918,72.57,0,0,870.0289,0,47.78,2.685,195,0.42,0.936,0.05307171,0,53.9,62,34.25,36.13
"2018-03-18 20:50:00",332394,0.542,145.8,3.837,73.71,0,0,870.0267,0,47.77,2.683,187,0.42,0.932,0,0,53.95,62,34.26,36.13
"2018-03-18 21:00:00",332395,0.67,141.7,3.679,74.47,0,0,870.0393,0,47.91,2.683,194,0.42,0.936,0,0,53.95,62.06,34.26,36.15
"2018-03-18 21:10:00",332396,1.002,149.5,3.809,75.17,0,0,870.0267,0,47.63,2.685,178,0.42,0.933,0.03790836,0,54.01,62.06,34.27,36.15
"2018-03-18 21:20:00",332397,0.869,147.7,3.904,75.1,0,0,870.0751,0,47.67,2.685,179,0.42,0.936,0,0,53.95,62.06,34.26,36.15
"2018-03-18 21:30:00",332398,0.547,128.7,3.858,75.68,0,0,870.2374,0,47.91,2.683,173,0.42,0.936,0,0,53.95,62.06,34.26,36.15
"2018-03-18 21:40:00",332399,0.684,155.7,3.858,76.41,0,0,870.1363,0,47.56,2.685,173,0.42,0.937,0,0,54.01,62.12,34.27,36.16
"2018-03-18 21:50:00",332400,0.59,156.1,3.879,76.79,0,0,870.0267,0,47.42,2.685,176,0.423,0.94,0.04549061,0,54.01,62.12,34.27,36.16
"2018-03-18 22:00:00",332401,0.856,150.8,4.198,75.87,0,0,870.0267,0,47.6,2.683,172,0.422,0.939,0.007581779,0,54.07,62.12,34.29,36.16
"2018-03-18 22:10:00",332402,0.611,154.5,4.075,76.6,0,0,870.0667,0,47.54,2.685,177,0.424,0.941,0,0,54.07,62.12,34.29,36.16
"2018-03-18 22:20:00",332403,0.33,131.9,3.881,77.81,0,0,870.0267,0,47.6,2.685,187,0.424,0.941,0,0,54.07,62.18,34.29,36.17
"2018-03-18 22:30:00",332404,0.297,106,3.647,78.84,0,0,870.0309,0,47.65,2.687,192,0.43,0.946,0,0,54.07,62.18,34.29,36.17
"2018-03-18 22:40:00",332405,0.289,77.05,3.4,80.6,0,0,870.0246,0,47.79,2.685,192,0.427,0.944,0,0,54.07,62.18,34.29,36.17
"2018-03-18 22:50:00",332406,0.5,108.4,3.497,80.5,0,0,870.0309,0,47.93,2.683,187,0.426,0.943,0,0,54.07,62.12,34.29,36.16
"2018-03-18 23:00:00",332407,0.684,138.6,3.383,80.8,0,0,869.9024,0,47.97,2.685,174,0.422,0.938,0,0,54.07,62.18,34.29,36.17
"2018-03-18 23:10:00",332408,0.332,141.6,3.023,82.8,0,0,869.7802,0,47.81,2.687,170,0.421,0.937,0,0,54.07,62.24,34.29,36.19
"2018-03-18 23:20:00",332409,0.266,150.9,3.065,82.9,0,0,869.7613,0,47.73,2.689,191,0.423,0.928,0.003790867,0,54.07,62.24,34.29,36.19
"2018-03-18 23:30:00",332410,0.279,148.1,3.05,83.5,0,0,869.7296,0,47.78,2.687,192,0.441,0.915,0,0,54.07,62.24,34.29,36.19
"2018-03-18 23:40:00",332411,0.211,140.3,2.927,83.9,0,0,869.5863,0,47.81,2.687,193,0.451,0.911,0,0,54.07,62.24,34.29,36.19
"2018-03-18 23:50:00",332412,0.39,139.8,3.194,83.4,0,0,869.5358,0,47.76,2.686,183,0.464,0.916,0.06824429,0,54.12,62.18,34.3,36.17
